Oxford, NC

4:28 AM EDT on September 20, 2019 (GMT -0400)
Henderson-Oxford

Weather History for KHNZ - July, 2019

Change the Weather History Date:

Wednesday, July 24, 2019

  Actual Average (WUND) Record (WUND)
Temperature  
Mean Temperature 70 °F -  
Max Temperature 80 °F - - (-1)
Min Temperature 61 °F - - (-1)
Cooling Degree Days 6    
Growing Degree Days 20 (Base 50)    
Moisture  
Dew Point 61 °F    
Average Humidity 76    
Maximum Humidity 97    
Minimum Humidity 44    
Precipitation  
Precipitation 0.00 in - - ()
Sea Level Pressure  
Sea Level Pressure 29.98 in    
Wind  
Wind Speed 1 mph (NNE)    
Max Wind Speed 8 mph    
Max Gust Speed -    
Visibility 10 miles    
Events      
Averages and records for this station are not official NWS values.
T = Trace of Precipitation, MM = Missing Value Source: NWS Daily Summary

Daily Weather History Graph

Daily Weather History Graph

Search for Another Location

Airport or City:

Astronomy

Jul. 24, 2019 Rise Set
Actual Time 6:14 AM EDT 8:26 PM EDT
Civil Twilight 5:45 AM EDT 8:55 PM EDT
Nautical Twilight 5:09 AM EDT 9:31 PM EDT
Astronomical Twilight 4:30 AM EDT 10:09 PM EDT
Moon 12:24 AM EDT (7/24) 1:11 PM EDT (7/24)
Length of Visible Light 15h 10m
Length of Day
14h 12m
Waning Gibbous, 54% of the Moon is Illuminated
Jul 24
Waning Gibbous
Jul 24
Last Quarter
Jul 31
New
Aug 7
First Quarter
Aug 15
Full

Hourly Weather History & Observations

Time (EDT) Temp. Heat Index Dew Point Humidity Pressure Visibility Wind Dir Wind Speed Gust Speed Precip Events Conditions
12:15 AM 61.2 °F - 60.1 °F 96% 29.93 in 10.0 mi Calm Calm - N/A   Clear
12:35 AM 61.2 °F - 59.9 °F 96% 29.93 in 10.0 mi Calm Calm - N/A   Clear
12:55 AM 61.0 °F - 59.9 °F 96% 29.92 in 10.0 mi Calm Calm - N/A   Clear
1:15 AM 61.2 °F - 60.1 °F 96% 29.92 in 10.0 mi Calm Calm - N/A   Clear
1:35 AM 61.5 °F - 60.4 °F 96% 29.91 in 10.0 mi Calm Calm - N/A   Clear
1:55 AM 61.7 °F - 60.4 °F 96% 29.91 in 10.0 mi Calm Calm - N/A   Clear
2:15 AM 61.7 °F - 60.6 °F 96% 29.91 in 10.0 mi Calm Calm - N/A   Clear
2:35 AM 61.9 °F - 60.8 °F 96% 29.91 in 10.0 mi Calm Calm - N/A   Clear
2:55 AM 61.9 °F - 60.8 °F 96% 29.91 in 10.0 mi Calm Calm - N/A   Clear
3:15 AM 62.1 °F - 61.0 °F 96% 29.91 in 10.0 mi Calm Calm - N/A   Clear
3:35 AM 62.1 °F - 61.0 °F 96% 29.92 in 10.0 mi Calm Calm - N/A   Clear
3:55 AM 62.1 °F - 61.0 °F 96% 29.91 in 10.0 mi Calm Calm - N/A   Scattered Clouds
4:15 AM 62.2 °F - 61.3 °F 97% 29.92 in 10.0 mi Calm Calm - N/A   Scattered Clouds
4:35 AM 62.1 °F - 61.2 °F 97% 29.92 in 7.0 mi Calm Calm - N/A   Scattered Clouds
4:55 AM 62.2 °F - 61.3 °F 97% 29.93 in 7.0 mi Calm Calm - N/A   Scattered Clouds
5:15 AM 62.1 °F - 61.3 °F 97% 29.94 in 7.0 mi Calm Calm - N/A   Mostly Cloudy
5:35 AM 61.9 °F - 61.2 °F 97% 29.94 in 7.0 mi Calm Calm - N/A   Scattered Clouds
5:55 AM 61.7 °F - 60.8 °F 97% 29.95 in 7.0 mi Calm Calm - N/A   Scattered Clouds
6:35 AM 61.7 °F - 60.8 °F 97% 29.96 in 7.0 mi Calm Calm - N/A   Clear
6:55 AM 61.7 °F - 60.8 °F 97% 29.97 in 7.0 mi Calm Calm - N/A   Clear
7:15 AM 62.1 °F - 61.2 °F 97% 29.98 in 7.0 mi Calm Calm - N/A   Clear
7:35 AM 62.8 °F - 61.3 °F 95% 29.98 in 10.0 mi Calm Calm - N/A   Clear
7:55 AM 63.7 °F - 61.7 °F 93% 29.98 in 10.0 mi Calm Calm - N/A   Clear
8:15 AM 63.5 °F - 61.5 °F 93% 29.99 in 10.0 mi Calm Calm - N/A   Clear
8:35 AM 65.3 °F - 62.4 °F 90% 30.00 in 10.0 mi Calm Calm - N/A   Clear
8:55 AM 66.6 °F - 63.0 °F 88% 30.00 in 10.0 mi Calm Calm - N/A   Clear
9:15 AM 67.3 °F - 62.6 °F 85% 30.00 in 10.0 mi Calm Calm - N/A   Clear
9:35 AM 69.3 °F - 62.6 °F 79% 30.00 in 10.0 mi Calm Calm - N/A   Clear
9:55 AM 70.5 °F - 63.3 °F 78% 30.01 in 10.0 mi Calm Calm - N/A   Clear
10:15 AM 71.6 °F - 61.9 °F 71% 30.00 in 10.0 mi North 4.6 mph - N/A   Clear
10:35 AM 73.0 °F - 62.1 °F 68% 30.01 in 10.0 mi Calm Calm - N/A   Clear
10:55 AM 74.1 °F - 61.3 °F 64% 30.00 in 10.0 mi Calm Calm - N/A   Clear
11:15 AM 74.5 °F - 60.8 °F 62% 30.00 in 10.0 mi NNE 5.8 mph - N/A   Clear
11:35 AM 75.6 °F - 61.2 °F 61% 30.00 in 10.0 mi NNE 8.1 mph - N/A   Clear
11:55 AM 76.5 °F - 60.8 °F 58% 30.00 in 10.0 mi Calm Calm - N/A   Clear
12:15 PM 77.2 °F - 60.8 °F 57% 30.00 in 10.0 mi Calm Calm - N/A   Scattered Clouds
12:35 PM 77.2 °F - 60.3 °F 56% 30.00 in 10.0 mi North 6.9 mph - N/A   Scattered Clouds
12:55 PM 77.4 °F - 59.9 °F 55% 29.99 in 10.0 mi Calm Calm - N/A   Scattered Clouds
1:15 PM 78.4 °F - 59.4 °F 52% 29.99 in 10.0 mi NE 8.1 mph - N/A   Scattered Clouds
1:35 PM 79.3 °F - 60.1 °F 52% 29.99 in 10.0 mi NNE 6.9 mph - N/A   Scattered Clouds
1:55 PM 79.0 °F - 59.2 °F 51% 29.99 in 10.0 mi NE 8.1 mph - N/A   Scattered Clouds
2:15 PM 78.4 °F - 59.4 °F 52% 29.98 in 10.0 mi Calm Calm - N/A   Scattered Clouds
2:35 PM 79.7 °F - 59.7 °F 50% 29.98 in 10.0 mi NE 6.9 mph - N/A   Scattered Clouds
2:55 PM 77.9 °F - 59.4 °F 53% 29.98 in 10.0 mi Calm Calm - N/A   Scattered Clouds
3:15 PM 78.6 °F - 59.2 °F 51% 29.98 in 10.0 mi Calm Calm - N/A   Scattered Clouds
3:35 PM 79.5 °F - 59.7 °F 51% 29.98 in 10.0 mi Calm Calm - N/A   Scattered Clouds
3:55 PM 79.5 °F - 58.6 °F 49% 29.98 in 10.0 mi Calm Calm - N/A   Scattered Clouds
4:15 PM 77.0 °F - 57.4 °F 51% 29.97 in 10.0 mi Calm Calm - N/A   Clear
4:35 PM 77.9 °F - 58.3 °F 51% 29.97 in 10.0 mi Calm Calm - N/A   Unknown
4:55 PM 80.2 °F 80.7 °F 58.1 °F 47% 29.97 in 10.0 mi Calm Calm - N/A   Unknown
5:15 PM 79.7 °F - 56.3 °F 44% 29.97 in 10.0 mi Calm Calm - N/A   Unknown
5:35 PM 80.4 °F 80.8 °F 57.9 °F 46% 29.97 in 10.0 mi Calm Calm - N/A   Unknown
5:55 PM 80.2 °F 80.8 °F 59.2 °F 48% 29.97 in 10.0 mi ENE 5.8 mph - N/A   Scattered Clouds
6:15 PM 79.2 °F - 57.4 °F 47% 29.98 in 10.0 mi Calm Calm - N/A   Scattered Clouds
6:35 PM 78.8 °F - 58.6 °F 50% 29.98 in 10.0 mi Calm Calm - N/A   Clear
6:55 PM 78.1 °F - 57.6 °F 49% 29.99 in 10.0 mi Calm Calm - N/A   Clear
7:15 PM 77.5 °F - 58.3 °F 51% 29.99 in 10.0 mi Calm Calm - N/A   Clear
7:35 PM 76.3 °F - 59.5 °F 56% 30.00 in 10.0 mi Calm Calm - N/A   Clear
7:55 PM 74.3 °F - 60.6 °F 62% 30.01 in 10.0 mi Calm Calm - N/A   Clear
8:15 PM 70.7 °F - 62.2 °F 75% 30.01 in 10.0 mi Calm Calm - N/A   Clear
8:35 PM 69.1 °F - 62.1 °F 78% 30.01 in 10.0 mi Calm Calm - N/A   Clear
8:55 PM 67.5 °F - 62.1 °F 83% 30.02 in 10.0 mi Calm Calm - N/A   Clear
9:15 PM 67.5 °F - 61.9 °F 82% 30.02 in 10.0 mi Calm Calm - N/A   Clear
9:35 PM 66.7 °F - 62.1 °F 85% 30.03 in 10.0 mi Calm Calm - N/A   Clear
9:55 PM 65.5 °F - 62.1 °F 89% 30.04 in 10.0 mi Calm Calm - N/A   Clear
10:15 PM 65.3 °F - 63.0 °F 92% 30.04 in 10.0 mi Calm Calm - N/A   Clear
10:35 PM 64.4 °F - 62.1 °F 92% 30.04 in 10.0 mi Calm Calm - N/A   Clear
10:55 PM 64.4 °F - 62.2 °F 93% 30.04 in 10.0 mi Calm Calm - N/A   Clear
11:15 PM 63.7 °F - 62.1 °F 94% 30.04 in 10.0 mi Calm Calm - N/A   Clear
11:35 PM 63.7 °F - 61.9 °F 94% 30.04 in 10.0 mi Calm Calm - N/A   Clear
11:55 PM 63.5 °F - 61.3 °F 93% 30.04 in 10.0 mi Calm Calm - N/A   Clear